CZ-8 R/B, 69419

Orbit data source: Space-Track

CZ-8 R/B, 69419 is space debris in LEO originally from a launch on Fri, 05 Jun 2026 UTC launched from the Wenchang Satellite Launch Center (WSC). Debris objects in space refer to the collection of defunct objects orbiting the Earth. Examples of debris include non-operational satellites, rocket bodies, and fragments generated from explosions, collisions, or faulty payload assembly.

Loading next visibility...
Identifier
69419, 2026-125U
Orbit
LEO
Country
Flag of CNCN / PRC
Related business
Manufacturer
CALT
Mission
Spacecraft
Bus & Motor
CZ-3A STAGE 3, Unknown motor
Mass
~2,800 kg wet, ~2,800 kg dry
Launch date (UTC)
2026-06-05 (2 weeks ago)
Launch vehicle
Unknown
Launch site
Wenchang Satellite Launch Center (WSC)
Object type
Payload
Rocket body
Debris
Shape & HBR
Unknown
Radar Cross Section
Large (>1 m²)

Expand to show TLE details & history
Last TLE update: 11 hours ago

TLE from 11 hours ago
0 CZ-8 R/B
1 69419U 26125U   26171.39697676  .00000104  00000-0  27233-4 0  9991
2 69419  88.9975 280.0330 0070449  71.1898 289.6928 14.39869804  2188
Epoch: 2026-06-20T09:31Z
TLE epoch observation values (Epoch: 2026-06-20T09:31:38.792Z)
Latitude
0.00003°
Longitude
-131.49082°
Altitude
745.379 km
Speed
7.491 km/s
True Right ascension
18h 40m 07s
True Declination
0° 00' 00"
Sunlit
Object was in full shadow at epoch
Visualization orbit readout
Latitude
Unknown
Longitude
Unknown
Altitude
Unknown
Speed
Unknown
Apparent Right ascension
Unknown
Apparent Declination
Unknown
Sunlit
N/A
Visualization observer readout
Local Sidereal Time
07:13:11
Azimuth
Unknown
Elevation
Unknown
Doppler factor
Unknown
Orbital elements
Apogee altitude
806.109 km
Perigee altitude
705.593 km
Semi-major axis
7,133.988 km
Eccentricity
0.00704
Inclination
88.9975°
RAAN
280.033°
Arg. of periapsis
71.1898°
True anomaly
288.93049°
Mean anomaly
289.6928°
Eccentric anomaly
289.31187°
Mean motion
3.60201 °/min
Orbital period
99.94 mins
BSTAR
0.000027233
Loading maneuver chart data...
Computing Atmospheric mass density...
Loading historical data...
Loading historical data...
Loading historical data...
Loading historical data...
Loading historical data...
Loading historical data...
Loading historical data...

Documentation

Showing up to 5 results
|